Regional Weather Roundup
Issued by NWS

Home | Current Version | Previous Version | Graphics & Text | Print | Product List | Glossary On
Versions: 1 2 3 4 5 6 7 8 9 10 11 12 13 14 15 16 17 18 19 20 21 22 23 24 25 26 27 28 29 30 31 32 33 34 35 36 37 38 39 40 41 42 43 44 45 46 47 48 49 50
000
ASUS45 KTFX 061710
RWRMT
MONTANA REGIONAL WEATHER ROUNDUP
NATIONAL WEATHER SERVICE GREAT FALLS MT
1100 AM MDT MON JUL 06 2015

NOTE: "FAIR" INDICATES FEW OR NO CLOUDS BELOW 12000 FEET WITH NO
SIGNIFICANT WEATHER AND/OR OBSTRUCTIONS TO VISIBILITY.

MTZ001>007-043-061800-
WEST OF THE DIVIDE

CITY           SKY/WX    TMP DP  RH WIND       PRES   REMARKS
KALISPELL      SUNNY     66  43  43 NE9       30.17F
MISSOULA       SUNNY     67  43  41 CALM      30.17F
BUTTE          SUNNY     63  47  55 CALM      30.24F
MULLAN PASS    SUNNY     55  44  66 VRB7      30.25R
DEER LODGE       N/A     64  46  52 NE3       30.24F
EUREKA           N/A     66  39  37 W3        30.17F
HAMILTON         N/A     66  48  52 N6        30.15F
LIBBY            N/A     64  43  45 W5        30.17F
PLAINS           N/A     68  45  43 CALM      30.15F
RONAN            N/A     67  50  54 N3        30.21S
THOMPSON FALLS   N/A     70  44  38 E8        30.17F
$$

MTZ008-052>055-061800-
SOUTHWEST MONTANA

CITY           SKY/WX    TMP DP  RH WIND       PRES   REMARKS
BOZEMAN        CLOUDY    61  50  67 VRB3      30.25F
DILLON         MOSUNNY   62  51  67 VRB3      30.24F
W YELLOWSTONE  CLOUDY    55  48  76 NW3       30.32F
THREE FORKS      N/A     61  61 100 E3        30.22F
$$

MTZ009-010-012-014-046-048-049-054-061800-
EAST SLOPES AND CENTRAL MONTANA

CITY           SKY/WX    TMP DP  RH WIND       PRES   REMARKS
CUT BANK       SUNNY     60  46  59 SE10      30.21F
GREAT FALLS    MOSUNNY   61  48  62 E7        30.22F
MALMSTROM AFB  MOSUNNY   60  49  67 SE6       30.23F
HELENA         CLOUDY    59  48  67 NE5       30.23F
CONRAD           N/A     60  55  83 SE7       30.22F
$$

MTZ011-013-016-021-045-047-050-051-061800-
NORTH CENTRAL MONTANA

CITY           SKY/WX    TMP DP  RH WIND       PRES   REMARKS
HAVRE          PTSUNNY   66  46  48 MISG      30.22F
LEWISTOWN      PTSUNNY   62  48  60 SE6       30.26F
CHINOOK          N/A     64  45  48 W3        30.22F
FORT BENTON      N/A     63  46  55 NE3       30.23F
$$

MTZ017>020-022>027-061-062-061800-
NORTHEAST MONTANA

CITY           SKY/WX    TMP DP  RH WIND       PRES   REMARKS
GLASGOW        MOSUNNY   66  47  50 CALM      30.21F
JORDAN           N/A     68  48  48 VRB5      30.23S
SIDNEY         MOSUNNY   66  50  55 NW10      30.20F
WOLF POINT     MOSUNNY   69  49  48 NW8       30.21F HAZE
MALTA            N/A     67  48  50 CALM      30.17F
PLENTYWOOD       N/A     63  52  67 NW5       30.21F
POPLAR           N/A     66  52  59 N7        30.21F
SCOBEY           N/A     63  46  53 N3        30.19F
$$

MTZ028>42-056>058-061800-
SOUTHCENTRAL AND SOUTHEAST MONTANA

CITY           SKY/WX    TMP DP  RH WIND       PRES   REMARKS
BAKER          PTSUNNY   64  49  57 NW12G21   30.24R
BILLINGS       PTSUNNY   61  49  64 E6        30.28F
LIVINGSTON     CLOUDY    58  49  72 E10       30.27F
MILES CITY     CLOUDY    63  50  62 NW5       30.24S
EKALAKA          N/A     62  50  65 NW8       30.21S
FORSYTH          N/A     64  52  63 W5        30.25S
LAUREL           N/A     60  46  59 NE2       30.24F
ROUNDUP          N/A     62  47  58 SE5       30.16F
$$

REGIONAL REPORTS...DAKOTAS

CITY           SKY/WX    TMP DP  RH WIND       PRES   REMARKS
WILLISTON      PTSUNNY   66  51  58 N10       30.20S HAZE
MINOT          CLOUDY    61  51  70 N7        30.17R HAZE
DICKINSON      PTSUNNY   66  50  56 NW9       30.18S
BEACH          FAIR      66  50  55 NW12      30.22S
CROSBY         FAIR      63  52  67 N10       30.21R
BISMARCK       CLOUDY    68  52  56 NW12      30.16R HAZE
GRAND FORKS    PTSUNNY   62  48  60 N17G23    30.10S
FARGO          PTSUNNY   65  48  54 N21       30.07R
BUFFALO SD       N/A     69  50  50 VRB6      30.16S
RAPID CITY     PTSUNNY   64  55  72 NW13      30.24S
$$

REGIONAL REPORTS...WYOMING/IDAHO/WASHINGTON

CITY           SKY/WX    TMP DP  RH WIND       PRES   REMARKS
GILLETTE       CLOUDY    58  50  75 NE5       30.29S
SHERIDAN       CLOUDY    58  53  84 CALM      30.29S
BUFFALO WY     CLOUDY    53  51  93 SE3       30.32S FOG
CODY           CLOUDY    57  50  77 N3        30.30S
YELLOWSTONE LA   N/A     57  49  74 VRB5      30.38F
IDAHO FALLS    CLOUDY    66  57  72 N5        30.20S
SALMON         SUNNY     72  52  49 CALM      30.13F
BOISE          SUNNY     83  50  31 N6        30.08S
SPOKANE        PTSUNNY   74  44  34 NE9       30.08S
$$

REGIONAL REPORTS...ALBERTA

CITY           SKY/WX    TMP DP  RH WIND       PRES   REMARKS
EDMONTON       MOSUNNY   66  39  37 S12       30.11F
CALGARY        MOSUNNY   64  48  55 S9        30.14F
LETHBRIDGE     MOSUNNY   64  45  48 S10G23    30.17F
MILK RIVER       N/A     63  46  55 S9          N/A
$$

REGIONAL REPORTS...SASKATCHEWAN

CITY           SKY/WX    TMP DP  RH WIND       PRES   REMARKS
SWIFT CURRENT  MOSUNNY   61  46  59 CALM      30.21F
REGINA         MOSUNNY   64  41  42 NE7       30.21F
SASKATOON      MOSUNNY   64  45  48 W6        30.21S
CYPRESS HILLS    N/A     57  43  58 S5          N/A
VAL MARIE        N/A     66  46  48 S2          N/A
ROCKGLEN         N/A     59  50  72 NW5         N/A
ASSINIBOIA       N/A     66  43  42 S10         N/A
$$



USA.gov is the U.S. government's official web portal to all federal, state and local government web resources and services.